クリステンセン彗星

P/2006 R2 ( Christensen )

English version
Home page
Updated on April 21, 2007

---------------------------------------------------------------------

・ プロフィール

発見日 2006年9月14日
発見光度 17.5等
発見者 Eric J. Christensen (Catalina Sky Survey)

・ 写真集

・ 軌道要素

The following orbital elements are taken from MPC 59042:

Epoch 2006 July 4.0 TT = JDT 2453920.5
T 2006 June 15.1398 TT                                  MPC
q   3.039170             (2000.0)            P               Q
n   0.1158484      Peri.  188.8559      +0.8440955      +0.5037261
a   4.167503       Node   139.1552      -0.4731392      +0.8609652
e   0.270746       Incl.   16.3171      -0.2522738      +0.0707035
P   8.51
From 128 observations 2006 Aug. 30-2007 Jan. 8, mean residual 0".7.

・ 光度変化

        m1 = 11.5 + 5 logΔ + 10.0 log r

---------------------------------------------------------------------

軌道要素はMPCのEphemerides and Orbital Elementsに掲載されたものです。
光度グラフはComet for Windowsで作成したものです。

---------------------------------------------------------------------

Copyright(C) Seiichi Yoshida (comet@aerith.net). All rights reserved.